Location: Bodham
(52.9000°N, 1.1667°E)
Time: 14:55:24
(UTC+00:00)

Cosmos 2112 Rocket - Pass Details

Date: 20 October 2025
Orbit: 753 x 782 km, 74.0° (Epoch: 13 November)

Event Time Altitude Azimuth Distance (km) Brightness Sun altitude
Rises 21:33:35 0° 256° (WSW) 3,260 7.6 -40.7°
Reaches altitude 10° 21:36:39 10° 274° (W) 2,331 6.9 -41.0°
Enters shadow 21:36:57 11° 277° (W) 2,256 6.8 -41.1°
Exits shadow 21:46:31 - 20° (NNE) 3,010 7.4 -42.0°
Sets 21:47:15 0° 24° (NNE) 3,250 7.5 -42.1°
